STARLINK-5651 (55357 NORAD) Tracking and Keplerian Element Data

This shows tracking and keplerian element data for the satellite.

Feedback or suggestion? Click here.




ElementValue
Catalog55357
NameSTARLINK-5651
Epoch Orbit1602
Epoch Day126.84034408
Epoch Year2023
RAAN179.3895
Inclination42.9998
Eccentricity0.000181
Argument of Perigee273.263
Mean Anonmoly86.8006
Mean Motion15.02535301
Decay Rate-7.77E-06
L11 55357U 23013AC 23126.84034408 -.00000777 00000+0 -42423-4 0 9990
L22 55357 42.9998 179.3895 0001810 273.2630 86.8006 15.02535301 16025



Live tracking and technical data element details for STARLINK-5651 (NORAD 55357). STARLINK-5651 can be tracked NOW for your location showing map with azimuth and elevation plus other details from your city location.







IsCatalogInMostPopularTable: catalog: 55357, numindb: 1
Update: records affected: 1



GetName: 55357 STARLINK-5651

Hit Count: updated at: Mon, 05 Jun 2023 20:12:03 GMT